Pocatello, ID

3:37 AM MDT on April 22, 2018 (GMT -0600)
Pocatello Regional

Weather History for KPIH - October, 2014

Change the Weather History Date:

Tuesday, October 7, 2014

  Actual Average Record
Temperature  
Mean Temperature 58 °F 50 °F  
Max Temperature 75 °F 65 °F 88 °F (1979)
Min Temperature 40 °F 35 °F 18 °F (2012)
Degree Days  
Heating Degree Days 7 15  
Month to date heating degree days 82 95  
Since 1 July heating degree days 260 344  
Cooling Degree Days 0 0  
Month to date cooling degree days 0 0  
Year to date cooling degree days 421 392  
Growing Degree Days 7 (Base 50)    
Moisture  
Dew Point 40 °F    
Average Humidity 60    
Maximum Humidity 93    
Minimum Humidity 27    
Precipitation  
Precipitation 0.00 in 0.03 in 0.55 in (2011)
Month to date precipitation 0.03 0.20  
Year to date precipitation 10.29 9.11  
Snow  
Snow 0.00 in - - ()
Month to date snowfall 0.0  
Since 1 July snowfall 0.0  
Since 1 September snowfall 0.0  
Snow Depth 0.00 in    
Sea Level Pressure  
Sea Level Pressure 30.00 in    
Wind  
Wind Speed 5 mph (SSW)    
Max Wind Speed 14 mph    
Max Gust Speed 18 mph    
Visibility 10 miles    
Events      
T = Trace of Precipitation, MM = Missing Value Source: NWS Daily Summary

Daily Weather History Graph

Daily Weather History Graph

Search for Another Location

Airport or City:

Astronomy

Oct. 07, 2014 Rise Set
Actual Time 7:34 AM MDT 7:01 PM MDT
Civil Twilight 7:06 AM MDT 7:29 PM MDT
Nautical Twilight 6:33 AM MDT 8:02 PM MDT
Astronomical Twilight 6:00 AM MDT 8:35 PM MDT
Moon 6:39 PM MDT (10/7) 6:34 AM MDT (10/7)
Length of Visible Light 12h 23m
Length of Day
11h 26m
Waxing Gibbous, 99% of the Moon is Illuminated
Oct 7
Waxing Gibbous
Oct 8
Full
Oct 15
Last Quarter
Oct 23
New
Oct 30
First Quarter

Hourly Weather History & Observations

Time (MDT) Temp. Windchill Dew Point Humidity Pressure Visibility Wind Dir Wind Speed Gust Speed Precip Events Conditions
12:53 AM 54.0 °F - 39.9 °F 59% 29.98 in 10.0 mi SW 6.9 mph - N/A   Clear
1:53 AM 51.1 °F - 39.9 °F 66% 29.99 in 10.0 mi Calm Calm - N/A   Clear
2:53 AM 48.9 °F - 41.0 °F 74% 29.99 in 10.0 mi Calm Calm - N/A   Clear
3:53 AM 46.0 °F 44.8 °F 39.9 °F 79% 29.99 in 10.0 mi NE 3.5 mph - N/A   Clear
4:53 AM 43.0 °F 37.7 °F 39.0 °F 86% 30.00 in 10.0 mi NNE 9.2 mph - N/A   Clear
5:53 AM 41.0 °F - 39.0 °F 93% 30.02 in 10.0 mi Calm Calm - N/A   Clear
6:53 AM 42.1 °F - 39.0 °F 89% 30.02 in 10.0 mi Calm Calm - N/A   Clear
7:53 AM 41.0 °F 35.8 °F 39.9 °F 96% 30.06 in 10.0 mi North 8.1 mph - N/A   Clear
8:53 AM 50.0 °F - 43.0 °F 77% 30.07 in 10.0 mi NE 3.5 mph - N/A   Clear
9:53 AM 55.9 °F - 45.0 °F 67% 30.06 in 10.0 mi ESE 4.6 mph - N/A   Clear
10:53 AM 61.0 °F - 44.1 °F 54% 30.04 in 10.0 mi Calm Calm - N/A   Clear
11:53 AM 68.0 °F - 43.0 °F 40% 30.02 in 10.0 mi Variable 3.5 mph - N/A   Clear
12:53 PM 70.0 °F - 41.0 °F 35% 30.02 in 10.0 mi West 10.4 mph - N/A   Clear
1:53 PM 71.1 °F - 43.0 °F 36% 30.01 in 10.0 mi WSW 8.1 mph - N/A   Partly Cloudy
2:53 PM 73.9 °F - 42.1 °F 32% 29.98 in 10.0 mi SW 10.4 mph - N/A   Partly Cloudy
3:53 PM 75.0 °F - 39.9 °F 28% 29.97 in 10.0 mi WSW 11.5 mph - N/A   Partly Cloudy
4:53 PM 75.0 °F - 39.9 °F 28% 29.96 in 10.0 mi West 8.1 mph - N/A   Partly Cloudy
5:53 PM 73.0 °F - 41.0 °F 31% 29.97 in 10.0 mi West 9.2 mph - N/A   Partly Cloudy
6:53 PM 64.9 °F - 42.1 °F 43% 29.98 in 10.0 mi South 4.6 mph - N/A   Clear
7:53 PM 55.0 °F - 39.0 °F 55% 30.01 in 10.0 mi South 9.2 mph - N/A   Clear
8:53 PM 55.4 °F - 35.6 °F 47% 30.04 in 10.0 mi South 9.2 mph - N/A   Clear
9:53 PM 57.9 °F - 37.0 °F 46% 29.97 in 10.0 mi SSE 4.6 mph - N/A   Clear
10:53 PM 55.0 °F - 37.0 °F 51% 29.97 in 10.0 mi East 3.5 mph - N/A   Clear
11:53 PM 52.0 °F - 37.9 °F 59% 29.96 in 10.0 mi East 3.5 mph - N/A   Clear